FW0019 Weather Reports


Display with metric or nautical units.
time (UTC)temp
F
wind
direction
speed
MPH
gust
MPH
rain 1hr
in
rain 24hr
in
rain mn
in
humidity
%
barometer
mb
20260831063036 69 83 5.0 11.0 0.00 0.00 0.00 25 878.7
20260831061529 69 111 5.0 13.0 0.00 0.00 0.00 25 878.7
20260831060031 70 77 6.0 13.0 0.00 0.00 0.00 26 878.6
20260831054527 69 76 7.0 12.0 0.00 0.00 0.00 28 878.6
20260831053027 69 105 4.0 10.0 0.00 0.00 0.00 30 878.6
20260831051535 69 82 5.0 13.0 0.00 0.00 0.00 30 878.6
20260831050026 69 105 5.0 14.0 0.00 0.00 0.00 29 878.6
20260831044525 69 93 7.0 11.0 0.00 0.00 0.00 29 878.6
20260831043023 69 94 5.0 11.0 0.00 0.00 0.00 31 878.6
20260831041522 69 75 6.0 13.0 0.00 0.00 0.00 32 878.7
20260831040026 69 81 6.0 11.0 0.00 0.00 0.00 33 878.5
20260831034520 69 109 4.0 10.0 0.00 0.00 0.00 35 878.4
20260831033021 68 94 4.0 11.0 0.00 0.00 0.00 38 878.2
20260831031517 67 108 3.0 9.0 0.00 0.00 0.00 47 878.1
20260831030015 67 94 4.0 10.0 0.00 0.00 0.00 57 878.0
20260831024514 68 83 7.0 10.0 0.00 0.00 0.00 52 878.0
20260831023013 69 89 5.0 9.0 0.00 0.00 0.00 46 878.0
20260831021517 70 94 5.0 10.0 0.00 0.00 0.00 49 878.0
20260831020013 71 59 4.0 10.0 0.00 0.00 0.00 44 877.9
20260831014514 73 113 8.0 16.0 0.00 0.00 0.00 40 877.9
20260831013012 74 132 7.0 16.0 0.00 0.00 0.00 36 877.8
20260831011516 75 109 9.0 18.0 0.00 0.00 0.00 34 877.8
20260831010010 76 122 11.0 19.0 0.00 0.00 0.00 34 877.8
20260831004509 77 132 10.0 18.0 0.00 0.00 0.00 32 877.7
20260831003009 78 115 9.0 18.0 0.00 0.00 0.00 30 877.9
20260831001508 79 80 10.0 25.0 0.00 0.00 0.00 29 878.0
20260831000007 80 136 9.0 18.0 0.00 0.00 0.00 29 878.1
20260830234507 81 67 7.0 22.0 0.00 0.00 0.00 29 878.1
20260830233005 81 114 8.0 23.0 0.00 0.00 0.00 28 878.2
20260830231504 81 178 11.0 16.0 0.00 0.00 0.00 28 878.1
20260830230003 81 157 9.0 18.0 0.00 0.00 0.00 29 878.3
20260830224502 82 123 11.0 17.0 0.00 0.00 0.00 28 878.4
20260830223002 82 154 9.0 18.0 0.00 0.00 0.00 29 878.5
20260830221501 82 132 12.0 18.0 0.00 0.00 0.00 30 878.6
20260830220001 82 146 7.0 17.0 0.00 0.00 0.00 33 878.8
20260830214601 82 156 12.0 23.0 0.00 0.00 0.00 34 878.9
20260830214502 83 96 10.0 19.0 0.00 0.00 0.00 34 878.9
20260830213101 83 133 9.0 22.0 0.00 0.00 0.00 34 879.0
20260830211559 83 144 11.0 19.0 0.00 0.00 0.00 34 879.1
20260830210106 83 164 9.0 18.0 0.00 0.00 0.00 35 879.2
20260830204559 83 142 12.0 22.0 0.00 0.00 0.00 34 879.3
20260830203059 83 164 8.0 17.0 0.00 0.00 0.00 35 879.4
20260830201557 83 117 8.0 18.0 0.00 0.00 0.00 36 879.6
20260830200057 83 94 7.0 19.0 0.00 0.00 0.00 36 879.6
20260830194602 83 136 8.0 16.0 0.00 0.00 0.00 35 879.6
20260830193055 84 107 6.0 18.0 0.00 0.00 0.00 33 879.8
20260830191553 83 96 11.0 20.0 0.00 0.00 0.00 31 879.8
20260830190054 83 148 10.0 17.0 0.00 0.00 0.00 31 879.9
20260830184551 82 105 8.0 15.0 0.00 0.00 0.00 31 880.1
20260830183051 83 135 7.0 14.0 0.00 0.00 0.00 32 880.1
20260830181548 82 162 5.0 13.0 0.00 0.00 0.00 31 880.1
20260830180046 82 43 4.0 11.0 0.00 0.00 0.00 30 880.1
20260830174544 81 128 7.0 13.0 0.00 0.00 0.00 30 880.0
20260830173042 81 134 6.0 14.0 0.00 0.00 0.00 31 879.8
20260830171544 81 126 6.0 12.0 0.00 0.00 0.00 31 879.8
20260830170037 80 107 5.0 10.0 0.00 0.00 0.00 32 879.8
20260830164535 79 101 5.0 13.0 0.00 0.00 0.00 32 879.6
20260830163041 78 109 6.0 14.0 0.00 0.00 0.00 33 879.4
20260830161530 78 109 6.0 13.0 0.00 0.00 0.00 33 879.2
20260830160049 77 101 7.0 14.0 0.00 0.00 0.00 33 879.2
20260830154526 77 84 7.0 14.0 0.00 0.00 0.00 35 879.2
20260830153023 76 128 6.0 16.0 0.00 0.00 0.00 36 879.2
20260830151519 75 112 7.0 13.0 0.00 0.00 0.00 38 879.2
20260830150019 74 134 7.0 13.0 0.00 0.00 0.00 39 879.1
20260830144515 73 96 7.0 11.0 0.00 0.00 0.00 39 879.2
20260830143016 73 104 5.0 13.0 0.00 0.00 0.00 40 879.1
20260830141512 73 103 5.0 15.0 0.00 0.00 0.00 40 879.1
20260830140008 72 89 6.0 10.0 0.00 0.00 0.00 40 879.0
20260830134508 71 85 6.0 11.0 0.00 0.00 0.00 41 878.8
20260830133005 69 97 5.0 8.0 0.00 0.00 0.00 43 878.6
20260830131504 69 133 5.0 10.0 0.00 0.00 0.00 44 878.6
20260830130004 69 109 3.0 8.0 0.00 0.00 0.00 47 878.5
20260830124509 68 109 6.0 10.0 0.00 0.00 0.00 48 878.5
20260830123002 68 73 5.0 9.0 0.00 0.00 0.00 51 878.6
20260830121503 69 98 4.0 10.0 0.00 0.00 0.00 52 878.5
20260830120002 68 105 5.0 10.0 0.00 0.00 0.00 52 878.6
20260830114613 68 90 5.0 10.0 0.00 0.00 0.00 52 878.5
20260830113100 68 90 5.0 11.0 0.00 0.00 0.00 51 878.5
20260830111558 68 75 4.0 9.0 0.00 0.00 0.00 50 878.5
20260830110057 68 84 7.0 10.0 0.00 0.00 0.00 50 878.5
20260830104557 67 79 5.0 12.0 0.00 0.00 0.00 51 878.4
20260830103056 68 92 5.0 9.0 0.00 0.00 0.00 51 878.4
20260830101553 68 127 5.0 11.0 0.00 0.00 0.00 51 878.4
20260830100053 68 69 5.0 10.0 0.00 0.00 0.00 50 878.3
20260830094550 69 92 6.0 11.0 0.00 0.00 0.00 49 878.3
20260830093048 69 131 5.0 10.0 0.00 0.00 0.00 49 878.2
20260830091545 70 76 5.0 9.0 0.00 0.00 0.00 49 878.4
20260830090059 70 87 6.0 10.0 0.00 0.00 0.00 47 878.4
20260830084542 71 92 5.0 10.0 0.00 0.00 0.00 46 878.4
20260830083046 71 96 4.0 9.0 0.00 0.00 0.00 46 878.5
20260830081536 71 87 5.0 10.0 0.00 0.00 0.00 46 878.6
20260830080034 71 54 5.0 10.0 0.00 0.00 0.00 46 878.6
20260830074531 71 59 6.0 10.0 0.00 0.00 0.00 46 878.7
20260830073034 71 86 5.0 10.0 0.00 0.00 0.00 46 878.8
20260830071527 71 110 5.0 13.0 0.00 0.00 0.00 45 878.9
20260830070025 71 69 5.0 11.0 0.00 0.00 0.00 46 878.9
20260830064524 72 86 5.0 11.0 0.00 0.00 0.00 45 878.9